Findlay, OH

1:32 AM EDT on July 21, 2017 (GMT -0400)
Findlay

Weather History for KFDY - September, 2012

Change the Weather History Date:

Friday, September 7, 2012

  Actual Average Record
Temperature  
Mean Temperature 71 °F -  
Max Temperature 82 °F 77 °F 95 °F (2002)
Min Temperature 61 °F 56 °F 41 °F (1988)
Cooling Degree Days 6    
Growing Degree Days 21 (Base 50)    
Moisture  
Dew Point 64 °F    
Average Humidity 81    
Maximum Humidity 97    
Minimum Humidity 64    
Precipitation  
Precipitation 0.35 in - - ()
Sea Level Pressure  
Sea Level Pressure 29.83 in    
Wind  
Wind Speed 6 mph (SW)    
Max Wind Speed 31 mph    
Max Gust Speed 43 mph    
Visibility 9 miles    
Events Rain , Thunderstorm    
Averages and records for this station are not official NWS values.
T = Trace of Precipitation, MM = Missing Value Source: NWS Daily Summary

Daily Weather History Graph

Daily Weather History Graph

Search for Another Location

Airport or City:

Trip Planner

Search our weather history database for the weather conditions in past years. The results will help you decide how hot, cold, wet, or windy it might be!

Date:

Astronomy

Sep. 07, 2012 Rise Set
Actual Time 7:07 AM EDT 7:56 PM EDT
Civil Twilight 6:39 AM EDT 8:24 PM EDT
Nautical Twilight 6:06 AM EDT 8:57 PM EDT
Astronomical Twilight 5:32 AM EDT 9:31 PM EDT
Moon 11:47 PM EDT (9/7) 2:02 PM EDT (9/7)
Length of Visible Light 13h 44m
Length of Day
12h 48m
Waning Gibbous, 58% of the Moon is Illuminated
Sep 7
Waning Gibbous
Sep 8
Last Quarter
Sep 15
New
Sep 22
First Quarter
Sep 29
Full

Hourly Weather History & Observations

Time (EDT) Temp. Heat Index Dew Point Humidity Pressure Visibility Wind Dir Wind Speed Gust Speed Precip Events Conditions
12:53 AM 64.9 °F - 62.1 °F 90% 29.90 in 10.0 mi WSW 3.5 mph - N/A   Scattered Clouds
2:53 AM 64.9 °F - 60.1 °F 84% 29.89 in 10.0 mi SSW 3.5 mph - N/A   Scattered Clouds
3:53 AM 66.0 °F - 61.0 °F 84% 29.88 in 10.0 mi Calm Calm - N/A   Mostly Cloudy
4:53 AM 64.0 °F - 60.1 °F 87% 29.88 in 10.0 mi Calm Calm - N/A   Partly Cloudy
5:53 AM 61.0 °F - 60.1 °F 97% 29.89 in 10.0 mi Calm Calm - N/A   Clear
6:53 AM 61.0 °F - 59.0 °F 93% 29.89 in 10.0 mi Calm Calm - N/A   Clear
7:53 AM 63.0 °F - 60.1 °F 90% 29.89 in 10.0 mi Calm Calm - N/A   Clear
8:53 AM 69.1 °F - 63.0 °F 81% 29.89 in 10.0 mi South 4.6 mph - N/A   Clear
9:53 AM 73.0 °F - 63.0 °F 71% 29.89 in 10.0 mi South 6.9 mph - N/A   Clear
10:53 AM 78.1 °F - 64.9 °F 64% 29.90 in 10.0 mi South 5.8 mph - N/A   Clear
11:49 AM 78.8 °F - 69.8 °F 74% 29.91 in 10.0 mi SSW 6.9 mph - N/A   Mostly Cloudy
11:53 AM 79.0 °F - 70.0 °F 74% 29.88 in 10.0 mi SSW 8.1 mph - N/A   Mostly Cloudy
12:07 PM 80.6 °F 84.6 °F 71.6 °F 74% 29.90 in 10.0 mi SW 6.9 mph - N/A   Mostly Cloudy
12:53 PM 81.0 °F 84.9 °F 71.1 °F 72% 29.86 in 10.0 mi WSW 8.1 mph - N/A   Scattered Clouds
1:53 PM 80.1 °F 83.6 °F 71.1 °F 74% 29.85 in 9.0 mi WSW 9.2 mph - N/A   Partly Cloudy
2:28 PM 78.8 °F - 69.8 °F 74% 29.93 in 7.0 mi West 31.1 mph 42.6 mph N/A Thunderstorm Squalls
2:43 PM 64.4 °F - 60.8 °F 88% 29.92 in 2.0 mi West 17.3 mph 35.7 mph 0.08 in Rain , Thunderstorm Light Thunderstorms and Rain
2:51 PM 66.2 °F - 62.6 °F 88% 29.91 in 8.0 mi West 16.1 mph 26.5 mph 0.08 in Rain , Thunderstorm Light Thunderstorms and Rain
2:53 PM 66.0 °F - 61.0 °F 84% 29.88 in 9.0 mi WNW 15.0 mph - 0.08 in Rain , Thunderstorm Light Thunderstorms and Rain
3:17 PM 68.0 °F - 60.8 °F 78% 29.84 in 7.0 mi North 11.5 mph - 0.04 in Rain Rain
3:53 PM 71.1 °F - 64.9 °F 81% 29.78 in 10.0 mi South 8.1 mph - 0.06 in   Partly Cloudy
4:53 PM 75.0 °F - 64.0 °F 69% 29.78 in 10.0 mi SSE 11.5 mph - N/A   Partly Cloudy
5:53 PM 73.0 °F - 63.0 °F 71% 29.76 in 10.0 mi South 9.2 mph - N/A   Scattered Clouds
6:53 PM 73.0 °F - 64.9 °F 76% 29.73 in 10.0 mi SSE 4.6 mph - N/A   Clear
7:53 PM 72.0 °F - 64.9 °F 78% 29.70 in 10.0 mi SSE 5.8 mph - N/A   Clear
8:53 PM 71.1 °F - 64.9 °F 81% 29.70 in 10.0 mi Calm Calm - N/A   Clear
9:06 PM 69.8 °F - 64.4 °F 83% 29.73 in 10.0 mi West 4.6 mph - N/A Thunderstorm Mostly Cloudy
9:33 PM 71.6 °F - 66.2 °F 83% 29.75 in 10.0 mi West 4.6 mph - 0.00 in Rain Light Rain
9:53 PM 71.1 °F - 64.9 °F 81% 29.74 in 10.0 mi West 10.4 mph - 0.00 in Rain Light Rain
10:15 PM 69.8 °F - 66.2 °F 88% 29.76 in 5.0 mi West 6.9 mph - 0.03 in Rain , Thunderstorm Rain
10:30 PM 69.8 °F - 66.2 °F 88% 29.76 in 4.0 mi SSW 4.6 mph - 0.06 in Rain Rain
10:53 PM 68.0 °F - 66.0 °F 93% 29.73 in 5.0 mi South 3.5 mph - 0.10 in Rain Light Rain
11:53 PM 66.9 °F - 64.9 °F 93% 29.71 in 4.0 mi West 8.1 mph - 0.11 in Rain Rain